Pittsfield, MA

8:56 AM EDT on May 23, 2017 (GMT -0400)
Pittsfield Municipal

Weather History for KPSF - May, 2013

Change the Weather History Date:

Wednesday, May 15, 2013

  Actual Average Record
Temperature  
Mean Temperature 45 °F 55 °F  
Max Temperature 60 °F 66 °F 82 °F (1961)
Min Temperature 29 °F 43 °F 29 °F (2013)
Degree Days  
Heating Degree Days 20 11  
Month to date heating degree days 171 192  
Since 1 July heating degree days 6807 7227  
Cooling Degree Days 0 0  
Month to date cooling degree days 0 0  
Year to date cooling degree days 0 2  
Moisture  
Dew Point 39 °F    
Average Humidity 67    
Maximum Humidity 92    
Minimum Humidity 41    
Precipitation  
Precipitation 0.06 in 0.13 in 1.03 in (2004)
Month to date precipitation 1.82 1.71  
Year to date precipitation 9.71 14.54  
Sea Level Pressure  
Sea Level Pressure 29.85 in    
Wind  
Wind Speed 6 mph (South)    
Max Wind Speed 23 mph    
Max Gust Speed 32 mph    
Visibility 8 miles    
Events Rain    
T = Trace of Precipitation, MM = Missing Value Source: NWS Daily Summary

Daily Weather History Graph

Daily Weather History Graph

Search for Another Location

Airport or City:

Trip Planner

Search our weather history database for the weather conditions in past years. The results will help you decide how hot, cold, wet, or windy it might be!

Date:

Astronomy

May. 15, 2013 Rise Set
Actual Time 5:31 AM EDT 8:08 PM EDT
Civil Twilight 4:59 AM EDT 8:40 PM EDT
Nautical Twilight 4:18 AM EDT 9:21 PM EDT
Astronomical Twilight 3:33 AM EDT 10:07 PM EDT
Moon 10:05 AM EDT (5/15) No Moon Set
Length of Visible Light 15h 41m
Length of Day
14h 37m
Waxing Crescent, 26% of the Moon is Illuminated
May 15
Waxing Crescent
May 18
First Quarter
May 25
Full
May 31
Last Quarter
Jun 8
New

Hourly Weather History & Observations

Time (EDT) Temp. Dew Point Humidity Pressure Visibility Wind Dir Wind Speed Gust Speed Precip Events Conditions
12:54 AM 33.1 °F 30.9 °F 92% 30.04 in 7.0 mi Calm Calm - N/A   Clear
1:54 AM 30.9 °F 28.9 °F 92% 30.04 in 9.0 mi Calm Calm - N/A   Clear
2:54 AM 30.9 °F 28.9 °F 92% 30.03 in 7.0 mi Calm Calm - N/A   Clear
3:38 AM 30.2 °F 28.4 °F 93% 30.03 in 1.0 mi Calm Calm - N/A   Clear
3:46 AM 30.2 °F 28.4 °F 93% 30.03 in 3.0 mi Calm Calm - N/A   Clear
3:54 AM 30.0 °F 28.0 °F 92% 30.03 in 2.5 mi Calm Calm - N/A   Clear
4:03 AM 30.2 °F 28.4 °F 93% 30.02 in 5.0 mi Calm Calm - N/A   Clear
4:54 AM 30.0 °F 28.0 °F 92% 30.02 in 5.0 mi Calm Calm - N/A   Clear
5:54 AM 30.0 °F 28.0 °F 92% 30.01 in 5.0 mi Calm Calm - N/A   Clear
6:54 AM 35.1 °F 32.0 °F 89% 30.01 in 10.0 mi Calm Calm - N/A   Scattered Clouds
7:54 AM 39.9 °F 32.0 °F 73% 29.97 in 10.0 mi Calm Calm - N/A   Partly Cloudy
8:54 AM 48.9 °F 32.0 °F 52% 29.96 in 10.0 mi Calm Calm - N/A   Partly Cloudy
9:54 AM 54.0 °F 32.0 °F 43% 29.93 in 10.0 mi SSW 10.4 mph - N/A   Mostly Cloudy
10:54 AM 55.0 °F 32.0 °F 42% 29.92 in 10.0 mi South 11.5 mph 18.4 mph N/A   Scattered Clouds
11:54 AM 55.9 °F 35.1 °F 45% 29.90 in 10.0 mi South 15.0 mph 25.3 mph N/A   Overcast
12:54 PM 52.0 °F 41.0 °F 66% 29.84 in 10.0 mi SSE 9.2 mph - 0.00 in   Overcast
1:54 PM 53.1 °F 42.1 °F 66% 29.86 in 8.0 mi SW 9.2 mph - 0.01 in Rain Light Rain
2:54 PM 51.1 °F 45.0 °F 80% 29.80 in 8.0 mi SSE 8.1 mph - 0.03 in Rain Light Rain
3:54 PM 53.1 °F 46.9 °F 80% 29.70 in 10.0 mi SE 15.0 mph 32.2 mph 0.01 in   Mostly Cloudy
4:54 PM 55.0 °F 48.0 °F 77% 29.69 in 10.0 mi Variable 4.6 mph 21.9 mph N/A   Overcast
5:11 PM 55.4 °F 48.2 °F 77% 29.70 in 10.0 mi SW 8.1 mph - N/A   Overcast
5:23 PM 57.2 °F 48.2 °F 72% 29.69 in 10.0 mi Variable 6.9 mph - N/A   Mostly Cloudy
5:54 PM 59.0 °F 48.9 °F 69% 29.67 in 10.0 mi South 5.8 mph - N/A   Clear
6:54 PM 59.0 °F 48.9 °F 69% 29.65 in 10.0 mi South 5.8 mph 16.1 mph N/A   Partly Cloudy
7:54 PM 59.0 °F 48.9 °F 69% 29.63 in 10.0 mi Variable 5.8 mph - N/A   Partly Cloudy
8:54 PM 57.9 °F 48.9 °F 72% 29.62 in 8.0 mi Variable 4.6 mph - 0.01 in Rain Light Rain
9:54 PM 55.9 °F 50.0 °F 80% 29.66 in 10.0 mi SSW 5.8 mph - 0.00 in   Scattered Clouds
10:54 PM 59.0 °F 50.0 °F 72% 29.65 in 10.0 mi SW 8.1 mph - N/A   Partly Cloudy
11:54 PM 53.1 °F 48.9 °F 86% 29.66 in 9.0 mi West 6.9 mph - N/A   Clear